Portada
METAR-TAF:

METAR-TAF

Aeroports :

Ipiales, Colòmbia

latitud: 00-49N, longitud: 077-38W, altitud: 2961 m

Observació

L'informe es va fer fa 13 hores i 28 minuts, a les 22:00 UTC
Vent 8 kt del Sud-Est
Temperatura 13°C
Humitat 72%
Pressió 1027 hPa
Visibilitat 10 km o més
Núvols disperses a una alçada de 1600 ft

METAR: SKIP 082200Z 14008KT 9999 SCT016 13/08 Q1027 RMK A3033

Hora: 06:28 (11:28 UTC)


TAF: manca

Observacions i pronòstics meteorològics de més de 4000 aeroports (METAR i TAF).

Les estacions disponibles són els punts grocs i vermells al mapa.

Posi el ratolí al punt desitjat per veure el nom de l'estació.

Feu clic per veure les observacions i els pronòstics meteorològics.

Per canviar el mapa: feu clic els botons verds amb una creu de color negre per apropar; al botó verd amb un guió per allunyar la imatge; o en les fletxes verdes per a mapes adjacents.


METAR-TAF: